Location: Brede
(50.9167°N, 0.6000°E)
Time: 12:09:28
(UTC+00:00)

Vanguard 2 Rocket - All Passes

Search period start: 30 November 2020 00:00
Search period end: 10 December 2020 00:00
Orbit: 553 x 3326 km, 32.9° (Epoch: 29 November)

Date Brightness Start Highest point End Pass type
(mag) Time Alt. Az. Time Alt. Az. Time Alt. Az.
30 Nov - 05:24:00 10° S 05:36:33 21° SE 05:48:55 10° ESE visible
30 Nov - 07:34:15 10° SW 07:51:21 37° SSE 08:05:55 10° ESE daylight
30 Nov - 09:49:21 10° WSW 10:06:43 40° S 10:19:23 10° ESE daylight
30 Nov - 12:07:16 10° W 12:20:42 28° SSW 12:30:10 10° SSE daylight
01 Dec - 04:27:00 10° SSE 04:36:01 15° SE 04:45:17 10° ESE visible
01 Dec - 06:34:04 10° SSW 06:50:09 33° SSE 07:05:08 10° ESE visible
01 Dec - 08:47:43 10° WSW 09:05:37 42° S 09:19:43 10° ESE daylight
01 Dec - 11:04:38 10° WSW 11:20:27 35° SSW 11:31:41 10° SE daylight
01 Dec - 13:24:58 10° WSW 13:33:04 16° SW 13:39:30 10° SSW daylight
02 Dec - 05:34:41 10° SSW 05:49:07 28° SSE 06:03:39 10° E visible
02 Dec - 07:46:37 10° SW 08:04:19 41° S 08:19:36 10° ESE daylight
02 Dec - 10:02:24 10° WSW 10:19:44 39° SSW 10:32:39 10° SE daylight
02 Dec - 12:21:05 10° W 12:33:23 24° SW 12:42:31 10° S daylight
03 Dec - 04:36:19 10° S 04:48:22 22° SE 05:01:12 10° E visible
03 Dec - 06:46:08 10° SW 07:02:58 38° SSE 07:18:58 10° ESE visible
03 Dec - 09:00:38 10° WSW 09:18:39 42° S 09:33:06 10° ESE daylight
03 Dec - 11:18:06 10° W 11:33:15 31° SSW 11:44:26 10° SSE daylight
03 Dec - 13:41:33 10° WSW 13:45:24 11° SW 13:48:53 10° SW daylight
04 Dec - 03:39:39 10° SSE 03:48:01 15° SE 03:57:03 10° ESE visible
04 Dec - 05:46:19 10° SSW 06:01:45 33° SSE 06:17:43 10° E visible
04 Dec - 07:59:22 10° WSW 08:17:18 43° S 08:33:05 10° ESE daylight
04 Dec - 10:15:41 10° WSW 10:32:38 37° SSW 10:45:39 10° SE daylight
04 Dec - 12:35:29 10° W 12:45:51 19° SW 12:54:06 10° S daylight
05 Dec - 04:47:18 10° SSW 05:00:49 28° SE 05:15:46 10° E visible
05 Dec - 06:58:40 10° SW 07:15:51 41° SSE 07:32:32 10° ESE visible
05 Dec - 09:13:46 10° WSW 09:31:36 41° SSW 09:46:16 10° SE daylight
05 Dec - 11:31:53 10° W 11:45:51 26° SW 11:56:41 10° SSE daylight
06 Dec - 03:49:16 10° S 04:00:16 21° SE 04:12:51 10° E visible
06 Dec - 05:58:34 10° SW 06:14:29 38° SSE 06:31:26 10° ESE visible
06 Dec - 08:12:23 10° WSW 08:30:16 43° S 08:46:20 10° ESE daylight
06 Dec - 10:29:11 10° W 10:45:23 33° SSW 10:58:16 10° SSE daylight
06 Dec - 12:51:19 10° WSW 12:58:08 13° SW 13:04:05 10° SSW daylight
07 Dec - 02:53:05 10° SSE 03:00:10 14° SE 03:08:06 10° ESE visible
07 Dec - 04:59:08 10° SSW 05:13:23 33° SSE 05:29:44 10° E visible
07 Dec - 07:11:32 10° WSW 07:28:46 44° S 07:45:53 10° ESE visible
07 Dec - 09:27:07 10° WSW 09:44:28 38° SSW 09:59:08 10° SE daylight
07 Dec - 11:46:15 10° W 11:58:16 21° SW 12:08:10 10° S daylight
08 Dec - 04:00:28 10° SSW 04:12:39 27° SE 04:27:20 10° E visible
08 Dec - 06:11:16 10° SW 06:27:19 42° SSE 06:44:53 10° ESE visible
08 Dec - 08:25:37 10° WSW 08:43:11 42° SSW 08:59:22 10° SE daylight
08 Dec - 10:43:00 10° W 10:57:56 28° SW 11:10:22 10° SSE daylight
09 Dec - 03:02:49 10° S 03:12:22 20° SE 03:23:57 10° E visible
09 Dec - 05:11:34 10° SW 05:26:05 38° SSE 05:43:20 10° ESE visible
09 Dec - 07:24:40 10° WSW 07:41:43 44° S 07:59:02 10° ESE daylight
09 Dec - 09:40:42 10° W 09:57:11 34° SSW 10:11:35 10° SSE daylight
09 Dec - 12:01:50 10° WSW 12:10:31 15° SW 12:18:11 10° SSW daylight
